Time,TemperatureF,DewpointF,PressureIn,WindDirection,WindDirectionDegrees,WindSpeedMPH,WindSpeedGustMPH,Humidity,HourlyPrecipIn,Conditions,Clouds,dailyrainin,SolarRadiationWatts/m^2,SoftwareType,DateUTC
2013-03-09 00:02:00,46.0,35.0,-100.00,SE,138,11.0,23.0,64,0.00,,,0.00,0.000000,,2013-03-09 06:02:00,
2013-03-09 00:32:00,46.0,35.0,-100.00,SE,138,13.0,20.0,65,0.00,,,0.00,0.000000,,2013-03-09 06:32:00,
2013-03-09 00:42:00,46.0,35.0,-100.00,SE,138,13.0,20.0,65,0.00,,,0.00,0.000000,,2013-03-09 06:42:00,
2013-03-09 00:52:00,46.0,35.0,-100.00,SE,138,13.0,20.0,65,0.00,,,0.00,0.000000,,2013-03-09 06:52:00,
2013-03-09 01:01:00,46.0,35.0,-100.00,SE,138,13.0,20.0,65,0.00,,,0.00,0.000000,,2013-03-09 07:01:00,
2013-03-09 01:32:00,46.0,35.0,-100.00,SE,136,12.0,20.0,65,0.00,,,0.00,0.000000,,2013-03-09 07:32:00,
2013-03-09 01:42:00,46.0,35.0,-100.00,SE,136,12.0,20.0,65,0.00,,,0.00,0.000000,,2013-03-09 07:42:00,
2013-03-09 01:52:00,46.0,35.0,-100.00,SE,136,12.0,20.0,65,0.00,,,0.00,0.000000,,2013-03-09 07:52:00,
2013-03-09 02:01:00,46.0,35.0,-100.00,SE,136,12.0,20.0,65,0.00,,,0.00,0.000000,,2013-03-09 08:01:00,
2013-03-09 02:32:00,46.0,35.0,-100.00,SE,136,11.0,17.0,66,0.00,,,0.00,0.000000,,2013-03-09 08:32:00,
2013-03-09 02:42:00,46.0,35.0,-100.00,SE,136,11.0,17.0,66,0.00,,,0.00,0.000000,,2013-03-09 08:42:00,
2013-03-09 02:52:00,46.0,35.0,-100.00,SE,136,11.0,17.0,66,0.00,,,0.00,0.000000,,2013-03-09 08:52:00,
2013-03-09 03:01:00,46.0,35.0,-100.00,SE,136,11.0,17.0,66,0.00,,,0.00,0.000000,,2013-03-09 09:01:00,
2013-03-09 03:32:00,46.0,35.0,-100.00,SE,141,12.0,17.0,66,0.00,,,0.00,0.000000,,2013-03-09 09:32:00,
2013-03-09 03:42:00,46.0,35.0,-100.00,SE,141,12.0,17.0,66,0.00,,,0.00,0.000000,,2013-03-09 09:42:00,
2013-03-09 03:52:00,46.0,35.0,-100.00,SE,141,12.0,17.0,66,0.00,,,0.00,0.000000,,2013-03-09 09:52:00,
2013-03-09 04:01:00,46.0,35.0,-100.00,SE,141,12.0,17.0,66,0.00,,,0.00,0.000000,,2013-03-09 10:01:00,
2013-03-09 04:32:00,46.0,34.0,-100.00,SSE,153,13.0,20.0,63,0.00,,,0.00,0.000000,,2013-03-09 10:32:00,
2013-03-09 04:42:00,46.0,34.0,-100.00,SSE,153,13.0,20.0,63,0.00,,,0.00,0.000000,,2013-03-09 10:42:00,
2013-03-09 04:52:00,46.0,34.0,-100.00,SSE,153,13.0,20.0,63,0.00,,,0.00,0.000000,,2013-03-09 10:52:00,
2013-03-09 05:01:00,46.0,34.0,-100.00,SSE,153,13.0,20.0,63,0.00,,,0.00,0.000000,,2013-03-09 11:01:00,
2013-03-09 05:32:00,46.0,33.0,-100.00,SSE,151,11.0,18.0,61,0.00,,,0.00,0.000000,,2013-03-09 11:32:00,
2013-03-09 05:42:00,46.0,33.0,-100.00,SSE,151,11.0,18.0,61,0.00,,,0.00,0.000000,,2013-03-09 11:42:00,
2013-03-09 05:52:00,46.0,33.0,-100.00,SSE,151,11.0,18.0,61,0.00,,,0.00,0.000000,,2013-03-09 11:52:00,
2013-03-09 06:01:00,46.0,33.0,-100.00,SSE,151,11.0,18.0,61,0.00,,,0.00,0.000000,,2013-03-09 12:01:00,
2013-03-09 06:32:00,46.0,33.0,-100.00,SSE,152,10.0,18.0,61,0.00,,,0.00,0.000000,,2013-03-09 12:32:00,
2013-03-09 06:42:00,46.0,33.0,-100.00,SSE,152,10.0,18.0,61,0.00,,,0.00,0.000000,,2013-03-09 12:42:00,
2013-03-09 06:52:00,46.0,33.0,-100.00,SSE,152,10.0,18.0,61,0.00,,,0.00,0.000000,,2013-03-09 12:52:00,
2013-03-09 07:02:00,46.0,33.0,-100.00,SSE,152,10.0,18.0,61,0.00,,,0.00,0.000000,,2013-03-09 13:02:00,
2013-03-09 07:32:00,47.0,34.0,-100.00,SSE,160,11.0,19.0,60,0.00,,,0.00,9.000000,,2013-03-09 13:32:00,
2013-03-09 07:42:00,47.0,34.0,-100.00,SSE,160,11.0,19.0,60,0.00,,,0.00,9.000000,,2013-03-09 13:42:00,
2013-03-09 07:52:00,47.0,34.0,-100.00,SSE,160,11.0,19.0,60,0.00,,,0.00,9.000000,,2013-03-09 13:52:00,
2013-03-09 08:01:00,47.0,34.0,-100.00,SSE,160,11.0,19.0,60,0.00,,,0.00,9.000000,,2013-03-09 14:01:00,
2013-03-09 08:32:00,50.0,37.0,-100.00,SSE,158,13.0,19.0,60,0.00,,,0.00,114.000000,,2013-03-09 14:32:00,
2013-03-09 08:42:00,50.0,37.0,-100.00,SSE,158,13.0,19.0,60,0.00,,,0.00,114.000000,,2013-03-09 14:42:00,
2013-03-09 08:52:00,50.0,37.0,-100.00,SSE,158,13.0,19.0,60,0.00,,,0.00,114.000000,,2013-03-09 14:52:00,
2013-03-09 09:02:00,50.0,37.0,-100.00,SSE,158,13.0,19.0,60,0.00,,,0.00,114.000000,,2013-03-09 15:02:00,
2013-03-09 09:32:00,52.0,36.0,-100.00,SSE,162,13.0,20.0,55,0.00,,,0.00,317.000000,,2013-03-09 15:32:00,
2013-03-09 09:42:00,52.0,36.0,-100.00,SSE,162,13.0,20.0,55,0.00,,,0.00,317.000000,,2013-03-09 15:42:00,
2013-03-09 09:52:00,52.0,36.0,-100.00,SSE,162,13.0,20.0,55,0.00,,,0.00,317.000000,,2013-03-09 15:52:00,
2013-03-09 10:01:00,52.0,36.0,-100.00,SSE,162,13.0,20.0,55,0.00,,,0.00,317.000000,,2013-03-09 16:01:00,
2013-03-09 10:32:00,52.0,39.0,-100.00,SSE,152,12.0,20.0,60,0.00,,,0.00,192.000000,,2013-03-09 16:32:00,
2013-03-09 10:42:00,52.0,39.0,-100.00,SSE,152,12.0,20.0,60,0.00,,,0.00,192.000000,,2013-03-09 16:42:00,
2013-03-09 10:52:00,52.0,39.0,-100.00,SSE,152,12.0,20.0,60,0.00,,,0.00,192.000000,,2013-03-09 16:52:00,
2013-03-09 11:01:00,52.0,39.0,-100.00,SSE,152,12.0,20.0,60,0.00,,,0.00,192.000000,,2013-03-09 17:01:00,
2013-03-09 11:32:00,54.0,43.0,-100.00,SSE,151,11.0,20.0,65,0.00,,,0.00,316.000000,,2013-03-09 17:32:00,
2013-03-09 11:42:00,54.0,43.0,-100.00,SSE,151,11.0,20.0,65,0.00,,,0.00,316.000000,,2013-03-09 17:42:00,
2013-03-09 11:52:00,54.0,43.0,-100.00,SSE,151,11.0,20.0,65,0.00,,,0.00,316.000000,,2013-03-09 17:52:00,
2013-03-09 12:01:00,54.0,43.0,-100.00,SSE,151,11.0,20.0,65,0.00,,,0.00,316.000000,,2013-03-09 18:01:00,
2013-03-09 12:32:00,55.0,44.0,-100.00,SSE,151,14.0,24.0,66,0.00,,,-99.99,351.000000,,2013-03-09 18:32:00,
2013-03-09 12:42:00,55.0,44.0,-100.00,SSE,151,14.0,24.0,66,0.00,,,-99.99,351.000000,,2013-03-09 18:42:00,
2013-03-09 12:52:00,55.0,44.0,-100.00,SSE,151,14.0,24.0,66,0.00,,,-99.99,351.000000,,2013-03-09 18:52:00,
2013-03-09 13:01:00,55.0,44.0,-100.00,SSE,151,14.0,24.0,66,0.00,,,-99.99,351.000000,,2013-03-09 19:01:00,
2013-03-09 13:32:00,56.0,45.0,-100.00,SSE,147,11.0,23.0,67,0.00,,,0.00,332.000000,,2013-03-09 19:32:00,
2013-03-09 13:42:00,56.0,45.0,-100.00,SSE,147,11.0,23.0,67,0.00,,,0.00,332.000000,,2013-03-09 19:42:00,
2013-03-09 13:52:00,56.0,45.0,-100.00,SSE,147,11.0,23.0,67,0.00,,,0.00,332.000000,,2013-03-09 19:52:00,
2013-03-09 14:01:00,56.0,45.0,-100.00,SSE,147,11.0,23.0,67,0.00,,,0.00,332.000000,,2013-03-09 20:01:00,
2013-03-09 14:32:00,55.0,45.0,-100.00,SE,138,8.0,17.0,70,0.00,,,0.00,60.000000,,2013-03-09 20:32:00,
2013-03-09 14:42:00,55.0,45.0,-100.00,SE,138,8.0,17.0,70,0.00,,,0.00,60.000000,,2013-03-09 20:42:00,
2013-03-09 14:52:00,55.0,45.0,-100.00,SE,138,8.0,17.0,70,0.00,,,0.00,60.000000,,2013-03-09 20:52:00,
2013-03-09 15:02:00,55.0,45.0,-100.00,SE,138,8.0,17.0,70,0.00,,,0.00,60.000000,,2013-03-09 21:02:00,
2013-03-09 15:32:00,56.0,49.0,-100.00,SSE,147,8.0,14.0,76,0.00,,,0.00,43.000000,,2013-03-09 21:32:00,
2013-03-09 15:42:00,56.0,49.0,-100.00,SSE,147,8.0,14.0,76,0.00,,,0.00,43.000000,,2013-03-09 21:42:00,
2013-03-09 15:52:00,56.0,49.0,-100.00,SSE,147,8.0,14.0,76,0.00,,,0.00,43.000000,,2013-03-09 21:52:00,
2013-03-09 16:01:00,56.0,49.0,-100.00,SSE,147,8.0,14.0,76,0.00,,,0.00,43.000000,,2013-03-09 22:01:00,
2013-03-09 16:32:00,58.0,52.0,-100.00,SSE,150,10.0,16.0,80,0.00,,,0.00,59.000000,,2013-03-09 22:32:00,
2013-03-09 16:42:00,58.0,52.0,-100.00,SSE,150,10.0,16.0,80,0.00,,,0.00,59.000000,,2013-03-09 22:42:00,
2013-03-09 16:52:00,58.0,52.0,-100.00,SSE,150,10.0,16.0,80,0.00,,,0.00,59.000000,,2013-03-09 22:52:00,
2013-03-09 17:01:00,58.0,52.0,-100.00,SSE,150,10.0,16.0,80,0.00,,,0.00,59.000000,,2013-03-09 23:01:00,
2013-03-09 17:32:00,59.0,54.0,-100.00,SSE,157,13.0,21.0,85,0.00,,,0.00,21.000000,,2013-03-09 23:32:00,
2013-03-09 17:42:00,59.0,54.0,-100.00,SSE,157,13.0,21.0,85,0.00,,,0.00,21.000000,,2013-03-09 23:42:00,
2013-03-09 17:52:00,59.0,54.0,-100.00,SSE,157,13.0,21.0,85,0.00,,,0.00,21.000000,,2013-03-09 23:52:00,
2013-03-09 18:01:00,59.0,54.0,-100.00,SSE,157,13.0,21.0,85,0.00,,,0.00,21.000000,,2013-03-10 00:01:00,
2013-03-09 18:32:00,59.0,55.0,-100.00,SSE,153,16.0,22.0,86,0.00,,,0.00,15.000000,,2013-03-10 00:32:00,
2013-03-09 18:43:00,59.0,55.0,-100.00,SSE,153,16.0,22.0,86,0.00,,,0.00,15.000000,,2013-03-10 00:43:00,
2013-03-09 18:52:00,59.0,55.0,-100.00,SSE,153,16.0,22.0,86,0.00,,,0.00,15.000000,,2013-03-10 00:52:00,
2013-03-09 19:01:00,59.0,55.0,-100.00,SSE,153,16.0,22.0,86,0.00,,,0.00,15.000000,,2013-03-10 01:01:00,
2013-03-09 19:32:00,59.0,55.0,-100.00,SSE,151,15.0,25.0,88,0.00,,,-99.99,0.000000,,2013-03-10 01:32:00,
2013-03-09 19:42:00,59.0,55.0,-100.00,SSE,151,15.0,25.0,88,0.00,,,-99.99,0.000000,,2013-03-10 01:42:00,
2013-03-09 19:52:00,59.0,55.0,-100.00,SSE,151,15.0,25.0,88,0.00,,,-99.99,0.000000,,2013-03-10 01:52:00,
2013-03-09 20:01:00,59.0,55.0,-100.00,SSE,151,15.0,25.0,88,0.00,,,-99.99,0.000000,,2013-03-10 02:01:00,
2013-03-09 20:32:00,58.0,55.0,-100.00,SE,146,17.0,25.0,90,0.00,,,-99.99,0.000000,,2013-03-10 02:32:00,
2013-03-09 20:42:00,58.0,55.0,-100.00,SE,146,17.0,25.0,90,0.00,,,-99.99,0.000000,,2013-03-10 02:42:00,
2013-03-09 20:52:00,58.0,55.0,-100.00,SE,146,17.0,25.0,90,0.00,,,-99.99,0.000000,,2013-03-10 02:52:00,
2013-03-09 21:01:00,58.0,55.0,-100.00,SE,146,17.0,25.0,90,0.00,,,-99.99,0.000000,,2013-03-10 03:01:00,
2013-03-09 21:32:00,57.0,56.0,-100.00,SSE,148,15.0,29.0,96,0.00,,,0.00,0.000000,,2013-03-10 03:32:00,
2013-03-09 21:42:00,57.0,56.0,-100.00,SSE,148,15.0,29.0,96,0.00,,,0.00,0.000000,,2013-03-10 03:42:00,
2013-03-09 21:52:00,57.0,56.0,-100.00,SSE,148,15.0,29.0,96,0.00,,,0.00,0.000000,,2013-03-10 03:52:00,
2013-03-09 22:01:00,57.0,56.0,-100.00,SSE,148,15.0,29.0,96,0.00,,,0.00,0.000000,,2013-03-10 04:01:00,
2013-03-09 22:32:00,57.0,56.0,-100.00,SSE,152,17.0,28.0,95,0.00,,,0.00,0.000000,,2013-03-10 04:32:00,
2013-03-09 22:42:00,57.0,56.0,-100.00,SSE,152,17.0,28.0,95,0.00,,,0.00,0.000000,,2013-03-10 04:42:00,
2013-03-09 22:52:00,57.0,56.0,-100.00,SSE,152,17.0,28.0,95,0.00,,,0.00,0.000000,,2013-03-10 04:52:00,
2013-03-09 23:01:00,57.0,56.0,-100.00,SSE,152,17.0,28.0,95,0.00,,,0.00,0.000000,,2013-03-10 05:01:00,
2013-03-09 23:32:00,54.0,54.0,-100.00,SSE,160,14.0,29.0,100,0.18,,,0.18,0.000000,,2013-03-10 05:32:00,
2013-03-09 23:42:00,54.0,54.0,-100.00,SSE,160,14.0,29.0,100,0.18,,,0.18,0.000000,,2013-03-10 05:42:00,
2013-03-09 23:52:00,54.0,54.0,-100.00,SSE,160,14.0,29.0,100,0.18,,,0.18,0.000000,,2013-03-10 05:52:00,